Location: Izdebno
(52.6670°N, 16.2170°E)
Time: 10:37:08
(UTC+01:00)

Explorer 7 - All Passes

Search period start: 05 March 2024 00:00
Search period end: 15 March 2024 00:00
Orbit: 470 x 631 km, 50.3° (Epoch: 04 March)

Date Brightness Start Highest point End Pass type
(mag) Time Alt. Az. Time Alt. Az. Time Alt. Az.
05 Mar - 04:54:41 10° SSW 04:57:29 21° SSE 05:00:19 10° E visible
05 Mar - 06:33:11 10° WSW 06:36:46 51° SSE 06:40:23 10° E daylight
05 Mar - 08:12:41 10° W 08:16:19 57° S 08:20:04 10° ESE daylight
05 Mar - 09:52:29 10° W 09:55:43 27° SSW 09:59:04 10° SSE daylight
06 Mar - 04:48:58 10° SSW 04:52:02 25° SSE 04:55:07 10° E visible
06 Mar - 06:27:47 10° WSW 06:31:23 55° S 06:35:03 10° E daylight
06 Mar - 08:07:21 10° W 08:10:57 52° SSW 08:14:39 10° ESE daylight
06 Mar - 09:47:16 10° W 09:50:17 23° SSW 09:53:21 10° SSE daylight
07 Mar - 04:43:20 10° SW 04:46:36 30° SSE 04:49:51 10° E visible
07 Mar - 06:22:24 10° WSW 06:26:00 59° S 06:29:40 10° E daylight
07 Mar - 08:02:00 10° W 08:05:34 47° SSW 08:09:13 10° ESE daylight
07 Mar - 09:42:07 10° W 09:44:48 19° SSW 09:47:32 10° SSE daylight
08 Mar - 03:00:55 10° SSE 03:02:07 11° SE 03:03:21 10° ESE visible
08 Mar - 04:37:45 10° SW 04:41:08 35° SSE 04:44:32 10° E visible
08 Mar - 06:17:00 10° WSW 06:20:37 60° S 06:24:16 10° E daylight
08 Mar - 07:56:38 10° W 08:00:08 41° SSW 08:03:43 10° SE daylight
08 Mar - 09:37:05 10° WSW 09:39:16 15° SW 09:41:31 10° S daylight
09 Mar - 02:54:29 10° S 02:56:34 15° SE 02:58:39 10° ESE visible
09 Mar - 04:32:12 10° SW 04:35:41 41° SSE 04:39:10 10° E visible
09 Mar - 06:11:34 10° W 06:15:11 60° S 06:18:52 10° ESE daylight
09 Mar - 07:51:16 10° W 07:54:41 36° SSW 07:58:09 10° SE daylight
09 Mar - 09:32:19 10° WSW 09:33:43 12° SW 09:35:08 10° SSW daylight
10 Mar - 02:48:25 10° S 02:51:01 18° SE 02:53:35 10° ESE visible
10 Mar - 04:26:40 10° WSW 04:30:13 47° SSE 04:33:46 10° E visible
10 Mar - 06:06:09 10° W 06:09:46 59° S 06:13:25 10° ESE daylight
10 Mar - 07:45:55 10° W 07:49:11 30° SSW 07:52:32 10° SE daylight
11 Mar - 02:42:31 10° SSW 02:45:27 22° SSE 02:48:22 10° E visible
11 Mar - 04:21:10 10° WSW 04:24:45 52° S 04:28:20 10° E visible
11 Mar - 06:00:43 10° W 06:04:19 55° S 06:07:56 10° ESE daylight
11 Mar - 07:40:34 10° W 07:43:40 26° SSW 07:46:48 10° SSE daylight
12 Mar - 02:36:43 10° SSW 02:39:55 27° SSE 02:43:03 10° E visible
12 Mar - 04:15:39 10° WSW 04:19:17 56° S 04:22:53 10° E visible
12 Mar - 05:55:15 10° W 05:58:49 51° SSW 06:02:26 10° ESE daylight
12 Mar - 07:35:16 10° W 07:38:06 21° SSW 07:40:58 10° SSE daylight
13 Mar - 02:31:00 10° SW 02:34:21 32° SSE 02:37:40 10° E visible
13 Mar - 04:10:09 10° WSW 04:13:48 59° S 04:17:25 10° E visible
13 Mar - 05:49:48 10° W 05:53:20 45° SSW 05:56:52 10° ESE daylight
13 Mar - 07:30:02 10° WSW 07:32:30 17° SW 07:35:01 10° S daylight
14 Mar - 00:48:07 10° SSE 00:49:45 12° SE 00:51:23 10° ESE night (unlit)
14 Mar - 02:25:19 10° SW 02:28:48 37° SSE 02:32:14 10° E visible
14 Mar - 04:04:37 10° W 04:08:17 60° S 04:11:55 10° E visible
14 Mar - 05:44:20 10° W 05:47:47 40° SSW 05:51:16 10° SE daylight
14 Mar - 07:24:56 10° WSW 07:26:52 14° SW 07:28:49 10° S daylight
